User: anonymous
Location: Caltech
(34.1382°N, 118.1253°W)
Time: 00:20:35
(UTC-07:00)
Language:

Cosmos 2237 Rocket - Orbit

View from above orbital plane
View from above orbital plane
View from above satellite
View from above satellite

Ground track
Ground track

The orbit data is extracted from the following two-line orbital elements,

1 22566U 93016B   14107.95450256  .00000364  00000-0  21322-3 0   356
2 22566 071.0087 333.7257 0008315 092.2650 267.9425 14.14833136 87720
Epoch (UTC): 17 April 2014 22:54:29
Eccentricity: 0.0008315
inclination: 71.0087°
perigee height: 837 km
apogee height: 849 km
right ascension of ascending node: 333.7257°
argument of perigee: 92.2650°
revolutions per day: 14.14833136
mean anomaly at epoch: 267.9425°
orbit number at epoch: 8772

The dashed part of the orbit path shows where the satellite is in the earth's shadow,  

DLR